Regional Weather Roundup
Issued by NWS

Home | Current Version | Previous Version | Text Only | Print | Product List | Glossary On
Versions: 1 2 3 4 5 6 7 8 9 10 11 12 13 14 15 16 17 18 19 20 21 22 23 24 25 26 27 28 29 30 31 32 33 34 35 36 37 38 39 40 41 42 43 44 45 46 47 48 49 50
423
ASUS43 KMPX 211710
RWRMN
WEATHER ROUNDUP FOR MINNESOTA
NATIONAL WEATHER SERVICE TWIN CITIES/CHANHASSEN MN
1100 AM CST SUN JAN 21 2018


NOTE: "FAIR" INDICATES FEW OR NO CLOUDS BELOW 12,000 FEET WITH NO
SIGNIFICANT WEATHER AND/OR OBSTRUCTIONS TO VISIBILITY. N/A MEANS
CURRENT SKY AND/OR WEATHER CONDITIONS ARE NOT AVAILABLE.

MNZ060>063-068>070-211800-
   Twin Cities Metro

CITY           SKY/WX    TMP DP  RH WIND       PRES   REMARKS
TWIN CITIES    CLOUDY    37  31  78 NE5       29.98F
ST PAUL        CLOUDY    36  31  82 N3        30.00S
CRYSTAL        CLOUDY    36  27  69 N5        29.98S
BLAINE         PTSUNNY   37  30  75 CALM      29.99R
LAKEVILLE        N/A     36  32  87 E3        29.97S
EDEN PRAIRIE   CLOUDY    38  29  70 NE6       29.97S
SOUTH ST PAUL  CLOUDY    37  30  76 N3        29.98S
LAKE ELMO      CLOUDY    36  32  87 NE3       29.99S
$$
MNZ001>005-007-008-013>017-022>024-027-028-211800-
   Northwest Minnesota

CITY           SKY/WX    TMP DP  RH WIND       PRES   REMARKS
BEMIDJI        FOG       21  19  94 N3        30.03R VSB 1
HALLOCK        CLOUDY    21  19  93 N7        30.10R WCI  13
ROSEAU         CLOUDY    25  19  80 N7        30.07R WCI  17
WARROAD        CLOUDY    25  19  80 NW8       30.06R WCI  16
THIEF RVR FALL CLOUDY    23  22  96 CALM      30.08R
CROOKSTON      PTSUNNY   19  19 100 CALM      30.10R
FOSSTON        CLOUDY    21  19  93 CALM      30.06R FOG
DETROIT LAKES  FAIR      23  21  93 CALM      30.03R
MOORHEAD       FAIR      19  18  93 N9        30.08R WCI   9
PARK RAPIDS    FAIR      25  23  92 N7        30.00R WCI  17
MAHNOMEN       CLOUDY    22  21  96 CALM      30.05R
$$
MNZ006-009>011-018-025>026-211800-
   North Central Minnesota

CITY           SKY/WX    TMP DP  RH WIND       PRES   REMARKS
BAUDETTE       CLOUDY    25  24  96 N8        30.03R FOG     WCI  16
FLAG ISLAND    CLOUDY    23  21  93 NW8       30.06R WCI  14
INTL FALLS     FOG       21  18  88 CALM      30.03R VSB 1/2
WASKISH        FOG       19  19 100 CALM      30.04S VSB 1/2
BIG FORK       CLOUDY    21  19  93 CALM      30.02R FOG
LONGVILLE      FAIR      25  25 100 N6        30.01R WCI  18
GRAND RAPIDS   CLOUDY    21  19  93 N6        30.02S FOG     WCI  14
CRANE LAKE     CLOUDY    19  19 100 CALM      30.05R FOG
ORR            FOG       21  18  86 CALM      30.00R VSB 1
COOK           CLOUDY    21  19  93 CALM      30.01R
WALKER         FAIR      24  24  96 CALM      30.01R
$$
MNZ012-019>021-037-211800-
   Northeast Minnesota

CITY           SKY/WX    TMP DP  RH WIND       PRES   REMARKS
DULUTH         FAIR      30  26  85 N3        29.97S
HIBBING        CLOUDY    22  21  96 CALM      29.99R FOG
EVELETH        PTSUNNY   15  11  85 CALM      30.00S FOG
DULUTH HARBOR  CLOUDY    30  28  93 E3        30.02S FOG
TWO HARBORS    FAIR      37  34  87 CALM      29.97S
SILVER BAY     FAIR      30  28  93 CALM      29.97S
GRAND MARAIS     N/A     30  28  92 NE3       30.02S
G MARAIS ARPRT FAIR      28  25  86 CALM      29.96S
$$
MNZ029>031-032-039>041-046>048-054>057-064-211800-
   West Central Minnesota

CITY           SKY/WX    TMP DP  RH WIND       PRES   REMARKS
FERGUS FALLS   FAIR      30  27  86 CALM      30.03R
WHEATON        CLOUDY    28  25  86 NW6       30.06R WCI  22
MORRIS         CLOUDY    30  28  93 NW6       30.01R WCI  24
ALEXANDRIA     CLOUDY    34  28  79 NE6       30.00R WCI  29
ELBOW LAKE     FAIR      30  28  93 NE3       30.02R
WADENA         FAIR      27  27 100 CALM      30.01R
GLENWOOD       FAIR      34  30  86 CALM      30.00R
APPLETON       PTSUNNY   34  28  80 NW3       30.02R
BENSON         CLOUDY    34  30  86 N6        30.02S WCI  29
ORTONVILLE     CLOUDY    30  27  86 NW7       30.02R WCI  23
MADISON        CLOUDY    36  30  80 NW8       30.02R
WILLMAR        FAIR      36  30  80 CALM      30.01R
$$
MNZ033>034-036-042>043-049>051-058-059-211800-
   Central Minnesota

CITY           SKY/WX    TMP DP  RH WIND       PRES   REMARKS
ST CLOUD       CLOUDY    35  29  78 NE5       29.99R WCI  31
SAUK CENTRE      N/A     33  29  85 N3        30.00R
PAYNESVILLE    CLOUDY    35  31  88 NE5       30.00R WCI  31
AITKIN         FAIR      27  25  93 CALM      29.99S
PINE RIVER     FAIR      25  23  93 N5        30.04R WCI  19
BRAINERD       PTSUNNY   31  26  82 CALM      30.01R
STAPLES        FAIR      27  27 100 CALM      30.01R
LONG PRAIRIE   FAIR      32  28  86 NW3       30.00R
LITTLE FALLS   CLOUDY    32  25  74 CALM      30.01R
LITCHFIELD     FAIR      37  30  75 CALM      29.99R
BUFFALO        PTSUNNY   35  29  79 CALM      30.00R
MAPLE LAKE     CLOUDY    36  31  83 MISG      30.00S
HUTCHINSON     CLOUDY    37  31  81 NE5       29.99S
$$
MNZ037-044-045-052-053-211800-
   East Central Minnesota

CITY           SKY/WX    TMP DP  RH WIND       PRES   REMARKS
PRINCETON      FAIR      36  28  75 NE3       30.00R
MORA           FAIR      34  28  80 NE3       30.01S
CAMBRIDGE        N/A     37  27  65 NE3       30.00R
RUSH CITY      PTSUNNY   33  27  79 CALM      30.00S
MOOSE LAKE     FAIR      32  27  80 CALM      29.99R
HINCKLEY       FAIR      34  28  80 VRB5      30.00S WCI  30
CLOQUET        FAIR      28  25  86 CALM      29.98S
MCGREGOR       FAIR      30  28  93 CALM      30.00S
$$
MNZ071>073-080-081-089-090-097-098-211800-
   Southwest Minnesota

CITY           SKY/WX    TMP DP  RH WIND       PRES   REMARKS
MONTEVIDEO     PTSUNNY   34  28  80 N7        30.00S WCI  28
GRANITE FALLS  CLOUDY    37  32  81 NW5       30.01R
CANBY          CLOUDY    35  29  78 W12       30.02R WCI  27
MARSHALL       CLOUDY    36  30  79 N6        30.00R
REDWOOD FALLS  CLOUDY    37  30  75 NE5       29.97S
OLIVIA         CLOUDY    36  32  87 E6        29.97S
PIPESTONE      CLOUDY    36  30  80 NE9       29.94R
WINDOM         MOSUNNY   37  21  52 NE7       29.95R
WORTHINGTON    CLOUDY    35  31  85 N12       29.94R WCI  27
JACKSON        CLOUDY    34  32  93 NE9       29.94R WCI  26
TRACY          CLOUDY    38  33  83 N8        29.97R
SLAYTON        CLOUDY    35  31  86 N7        29.96R WCI  29
$$
MNZ065>067-074>077-082>085-091>093-211800-
   South Central Minnesota

CITY           SKY/WX    TMP DP  RH WIND       PRES   REMARKS
MANKATO        FAIR      38  31  76 NE8       29.96S
NEW ULM        CLOUDY    37  28  70 NE9       29.96S
ST JAMES       CLOUDY    36  32  87 N7        29.96S
FAIRMONT       CLOUDY    35  32  88 NE8       29.94S WCI  29
GLENCOE        CLOUDY    37  32  81 N3        29.97S
FARIBAULT      FAIR      37  30  75 N5        29.96S
OWATONNA       FAIR      36  30  80 NE6       29.95S
WASECA         FAIR      36  32  87 NE9       29.95F
ALBERT LEA     FAIR      34  30  86 E6        29.93S FOG     WCI  29
$$
MNZ078>079-086>088-094>096-211800-
   Southeast Minnesota

CITY           SKY/WX    TMP DP  RH WIND       PRES   REMARKS
ROCHESTER      FAIR      34  31  88 NE7       29.94S FOG     WCI  28
RED WING       CLOUDY    34  30  86 CALM      29.97F
STANTON        CLOUDY    34  32  95 E5        29.96F WCI  29
DODGE CENTER   FAIR      32  30  93 NE3       29.95S FOG
WINONA         FAIR      30  30 100 CALM      29.96F FOG
AUSTIN         FAIR      36  30  80 E5        29.93S
PRESTON        FAIR      34  30  87 NE7       29.94F WCI  28
$$
ABBREVIATIONS USED IN REMARKS
   TC - TEMPERATURES IN CELSIUS
  WCI - WIND CHILL INDEX
   HX - HEAT INDEX
  VSB - VISIBILITY
$$




USA.gov is the U.S. government's official web portal to all federal, state and local government web resources and services.